EW1296 Weather Reports


time (UTC)temp
C
wind
direction
speed
KPH
gust
KPH
rain 1hr
cm
rain 24hr
cm
rain mn
cm
humidity
%
barometer
mb
20260504023037 13 225 6.4 12.9 0.00 0.00 0.00 40 1012.6
20260504022517 13 225 4.8 14.5 0.00 0.00 0.00 39 1012.7
20260504022037 13 225 3.2 9.7 0.00 0.00 0.00 39 1012.7
20260504021517 13 225 4.8 12.9 0.00 0.00 0.00 38 1012.7
20260504021017 13 248 6.4 17.7 0.00 0.00 0.00 38 1012.7
20260504020517 13 225 8.0 19.3 0.00 0.00 0.00 38 1012.7
20260504020017 13 225 6.4 14.5 0.00 0.00 0.00 38 1012.7
20260504015518 13 225 4.8 12.9 0.00 0.00 0.00 38 1012.7
20260504015017 14 225 4.8 14.5 0.00 0.00 0.00 37 1012.7
20260504014517 14 225 4.8 12.9 0.00 0.00 0.00 36 1012.6
20260504014017 14 225 4.8 12.9 0.00 0.00 0.00 36 1012.5
20260504013518 14 248 4.8 12.9 0.00 0.00 0.00 36 1012.4
20260504013037 14 248 6.4 12.9 0.00 0.00 0.00 36 1012.4
20260504012518 14 248 4.8 9.7 0.00 0.00 0.00 36 1012.3
20260504012017 14 248 6.4 12.9 0.00 0.00 0.00 35 1012.3
20260504011558 14 248 4.8 8.0 0.00 0.00 0.00 35 1012.2
20260504011038 14 248 4.8 9.7 0.00 0.00 0.00 35 1012.1
20260504010517 14 248 3.2 8.0 0.00 0.00 0.00 35 1012.1
20260504010018 15 248 6.4 12.9 0.00 0.00 0.00 34 1012.0
20260504005517 15 248 4.8 9.7 0.00 0.00 0.00 34 1012.0
20260504005016 15 225 3.2 11.3 0.00 0.00 0.00 33 1011.9
20260504004517 15 248 3.2 12.9 0.00 0.00 0.00 33 1011.9
20260504004018 15 248 3.2 9.7 0.00 0.00 0.00 33 1011.8
20260504003517 15 248 4.8 9.7 0.00 0.00 0.00 33 1011.7
20260504003017 15 248 4.8 11.3 0.00 0.00 0.00 33 1011.6
20260504002517 15 248 4.8 11.3 0.00 0.00 0.00 33 1011.6
20260504002017 15 248 4.8 11.3 0.00 0.00 0.00 32 1011.5
20260504001517 15 225 4.8 14.5 0.00 0.00 0.00 32 1011.4
20260504001017 15 248 4.8 11.3 0.00 0.00 0.00 32 1011.3
20260504000516 15 270 3.2 9.7 0.00 0.00 0.00 31 1011.2
20260504000017 15 248 8.0 14.5 0.00 0.00 0.00 31 1011.2
20260503235516 15 270 6.4 16.1 0.00 0.00 0.00 31 1011.2
20260503235017 16 270 8.0 17.7 0.00 0.00 0.00 30 1011.2
20260503234517 16 248 6.4 16.1 0.00 0.00 0.00 30 1011.0
20260503234017 16 270 6.4 16.1 0.00 0.00 0.00 30 1011.0
20260503233517 16 270 4.8 11.3 0.00 0.00 0.00 31 1010.9
20260503233017 16 270 6.4 16.1 0.00 0.00 0.00 31 1010.9
20260503232518 16 315 8.0 16.1 0.00 0.00 0.00 29 1010.8
20260503232016 16 293 4.8 16.1 0.00 0.00 0.00 29 1010.8
20260503231516 16 270 4.8 12.9 0.00 0.00 0.00 29 1010.7
20260503231016 16 315 6.4 17.7 0.00 0.00 0.00 29 1010.7
20260503230517 16 315 6.4 17.7 0.00 0.00 0.00 30 1010.6
20260503230016 16 338 4.8 9.7 0.00 0.00 0.00 30 1010.7
20260503225539 16 270 4.8 11.3 0.00 0.00 0.00 29 1010.7
20260503225018 16 315 8.0 22.5 0.00 0.00 0.00 28 1010.6
20260503224517 16 315 8.0 20.9 0.00 0.00 0.00 27 1010.6
20260503224017 16 293 9.7 17.7 0.00 0.00 0.00 27 1010.6
20260503223518 16 0 9.7 19.3 0.00 0.00 0.00 27 1010.6
20260503223018 16 293 9.7 17.7 0.00 0.00 0.00 27 1010.5
20260503222517 16 338 11.3 25.7 0.00 0.00 0.00 26 1010.5
20260503222016 16 338 8.0 20.9 0.00 0.00 0.00 27 1010.4
20260503221516 16 293 8.0 20.9 0.00 0.00 0.00 27 1010.5
20260503221036 16 315 11.3 24.1 0.00 0.00 0.00 26 1010.4
20260503220516 16 315 9.7 20.9 0.00 0.00 0.00 26 1010.5
20260503220017 16 270 11.3 25.7 0.00 0.00 0.00 26 1010.6
20260503215517 16 270 11.3 35.4 0.00 0.00 0.00 26 1010.6
20260503215036 16 293 11.3 17.7 0.00 0.00 0.00 27 1010.6
20260503214516 16 270 12.9 32.2 0.00 0.00 0.00 28 1010.6
20260503214017 16 270 12.9 29.0 0.00 0.00 0.00 27 1010.5
20260503213516 16 315 11.3 24.1 0.00 0.00 0.00 26 1010.6
20260503213037 16 315 11.3 27.4 0.00 0.00 0.00 27 1010.5
20260503212517 16 315 12.9 24.1 0.00 0.00 0.00 27 1010.6
20260503212016 16 338 11.3 20.9 0.00 0.00 0.00 27 1010.5
20260503211516 16 338 12.9 32.2 0.00 0.00 0.00 27 1010.5
20260503211036 16 270 11.3 25.7 0.00 0.00 0.00 28 1010.5
20260503210518 16 270 14.5 29.0 0.00 0.00 0.00 27 1010.5
20260503210016 16 315 11.3 27.4 0.00 0.00 0.00 28 1010.4
20260503205516 16 315 12.9 22.5 0.00 0.00 0.00 27 1010.4
20260503205018 16 315 11.3 29.0 0.00 0.00 0.00 28 1010.4
20260503204516 16 315 12.9 29.0 0.00 0.00 0.00 27 1010.4
20260503204016 16 270 16.1 40.2 0.00 0.00 0.00 27 1010.4
20260503203517 16 315 11.3 27.4 0.00 0.00 0.00 28 1010.4
20260503203018 16 315 12.9 25.7 0.00 0.00 0.00 27 1010.4
20260503202538 16 270 14.5 32.2 0.00 0.00 0.00 29 1010.5
20260503202016 16 270 12.9 29.0 0.00 0.00 0.00 27 1010.5
20260503201537 16 270 12.9 25.7 0.00 0.00 0.00 27 1010.6
20260503201017 16 315 9.7 27.4 0.00 0.00 0.00 29 1010.6
20260503200517 16 315 9.7 22.5 0.00 0.00 0.00 28 1010.6
20260503200016 16 338 11.3 19.3 0.00 0.00 0.00 28 1010.7
20260503195538 16 270 16.1 29.0 0.00 0.00 0.00 28 1010.8
20260503195017 16 270 12.9 30.6 0.00 0.00 0.00 28 1010.7
20260503194537 16 270 14.5 33.8 0.00 0.00 0.00 29 1010.8
20260503194016 16 315 11.3 24.1 0.00 0.00 0.00 30 1010.8
20260503193516 16 293 12.9 25.7 0.00 0.00 0.00 29 1010.8
20260503193059 16 315 9.7 22.5 0.00 0.00 0.00 29 1010.9
20260503192517 16 315 12.9 27.4 0.00 0.00 0.00 31 1010.9
20260503192016 15 315 12.9 25.7 0.00 0.00 0.00 30 1011.0
20260503191516 15 338 9.7 19.3 0.00 0.00 0.00 30 1011.0
20260503191016 15 315 11.3 24.1 0.00 0.00 0.00 31 1011.1
20260503190516 15 270 12.9 30.6 0.00 0.00 0.00 30 1011.1
20260503190017 15 315 11.3 22.5 0.00 0.00 0.00 32 1011.1
20260503185516 15 338 9.7 20.9 0.00 0.00 0.00 31 1011.1
20260503185037 14 270 14.5 37.0 0.00 0.00 0.00 32 1011.4
20260503184516 14 270 12.9 30.6 0.00 0.00 0.00 32 1011.5
20260503184037 14 270 14.5 32.2 0.00 0.00 0.00 33 1011.6
20260503183516 13 270 9.7 20.9 0.00 0.00 0.00 34 1011.6
20260503183016 13 315 11.3 29.0 0.00 0.00 0.00 35 1011.6
20260503182516 13 270 11.3 25.7 0.00 0.00 0.00 34 1011.7
20260503182036 13 315 14.5 35.4 0.00 0.00 0.00 34 1011.7
20260503181516 13 315 11.3 25.7 0.00 0.00 0.00 34 1011.7
20260503181016 13 315 14.5 27.4 0.00 0.00 0.00 34 1011.6
20260503180516 13 248 16.1 35.4 0.00 0.00 0.00 34 1011.7
20260503180016 13 270 16.1 35.4 0.00 0.00 0.00 35 1011.7
20260503175516 13 315 14.5 33.8 0.00 0.00 0.00 35 1011.6
20260503175016 13 270 9.7 22.5 0.00 0.00 0.00 37 1011.6
20260503174516 13 293 12.9 24.1 0.00 0.00 0.00 36 1011.7
20260503174016 13 293 11.3 22.5 0.00 0.00 0.00 35 1011.6
20260503173516 13 315 11.3 22.5 0.00 0.00 0.00 36 1011.7
20260503173016 13 315 11.3 29.0 0.00 0.00 0.00 36 1011.7
20260503172516 14 270 11.3 22.5 0.00 0.00 0.00 35 1011.7
20260503172016 14 270 12.9 22.5 0.00 0.00 0.00 34 1011.8
20260503171517 14 270 12.9 24.1 0.00 0.00 0.00 35 1011.7
20260503171016 13 270 11.3 24.1 0.00 0.00 0.00 36 1011.8
20260503170516 13 315 9.7 22.5 0.00 0.00 0.00 37 1011.8
20260503150516 12 315 9.7 20.9 0.00 0.00 0.00 36 1012.1
20260503131016 10 338 8.0 19.3 0.00 0.00 0.00 51 1012.3
20260503130517 10 315 9.7 22.5 0.00 0.00 0.00 51 1012.4
20260503110516 8 315 11.3 22.5 0.00 0.00 0.00 55 1011.5
20260503081517 9 0 4.8 17.7 0.00 0.03 0.00 51 1010.3
20260503081017 9 23 4.8 14.5 0.00 0.03 0.00 51 1010.3
20260503080558 9 0 4.8 17.7 0.00 0.03 0.00 51 1010.3
20260503072516 10 338 3.2 9.7 0.00 0.03 0.00 50 1010.2
20260503072039 10 23 3.2 14.5 0.00 0.03 0.00 50 1010.3
20260503071538 10 338 4.8 16.1 0.00 0.03 0.00 50 1010.3
20260503071017 10 0 4.8 17.7 0.00 0.03 0.00 49 1010.2
20260503070537 10 23 4.8 12.9 0.00 0.03 0.00 49 1010.2
20260503055016 11 338 6.4 16.1 0.00 0.03 0.00 45 1010.4
20260503054517 11 0 4.8 11.3 0.00 0.03 0.00 45 1010.5
20260503054022 11 0 6.4 14.5 0.00 0.03 0.00 44 1010.5
20260503053520 11 338 4.8 14.5 0.00 0.03 0.00 44 1010.6
20260503053018 11 338 4.8 12.9 0.00 0.03 0.00 43 1010.6
20260503052536 11 338 6.4 12.9 0.00 0.03 0.00 43 1010.5
20260503052016 11 315 6.4 14.5 0.00 0.03 0.00 42 1010.7
20260503051516 11 338 4.8 16.1 0.00 0.03 0.00 42 1010.8
20260503051016 11 338 6.4 14.5 0.00 0.03 0.00 42 1010.9
20260503050517 11 338 6.4 19.3 0.00 0.03 0.00 41 1010.8
20260503050016 11 0 6.4 19.3 0.00 0.03 0.00 41 1011.0
20260503045516 12 0 4.8 12.9 0.00 0.03 0.00 41 1011.0
20260503045016 12 338 4.8 16.1 0.00 0.03 0.00 41 1011.1
20260503044516 12 338 4.8 16.1 0.00 0.03 0.00 40 1010.9
20260503044016 12 338 6.4 17.7 0.00 0.03 0.00 40 1011.0
20260503043516 12 315 4.8 14.5 0.00 0.03 0.00 40 1011.0
20260503043016 12 338 4.8 17.7 0.00 0.03 0.00 39 1011.0
20260503042516 12 0 6.4 17.7 0.00 0.03 0.00 39 1011.0
20260503042017 12 0 4.8 14.5 0.00 0.03 0.00 39 1011.1
20260503041516 12 338 6.4 14.5 0.00 0.03 0.00 38 1011.1
20260503041016 12 338 3.2 16.1 0.00 0.03 0.00 39 1011.1
20260503040516 12 338 6.4 16.1 0.00 0.03 0.00 38 1011.2
20260503040016 12 338 4.8 12.9 0.00 0.03 0.00 39 1011.2
20260503035516 12 338 4.8 16.1 0.00 0.03 0.03 39 1011.2
20260503035017 12 338 3.2 9.7 0.00 0.03 0.03 39 1011.1
20260503034517 12 0 6.4 19.3 0.00 0.03 0.03 38 1011.1
20260503034016 12 338 4.8 14.5 0.00 0.03 0.03 39 1011.0
20260503033516 12 338 4.8 12.9 0.00 0.03 0.03 39 1011.0
20260503033018 12 338 4.8 19.3 0.00 0.03 0.03 38 1011.0
20260503032516 12 0 6.4 16.1 0.00 0.03 0.03 37 1011.0
20260503032036 12 0 4.8 12.9 0.00 0.03 0.03 38 1010.9
20260503031516 13 0 4.8 12.9 0.00 0.03 0.03 38 1010.9
20260503031017 13 0 4.8 9.7 0.00 0.03 0.03 38 1011.0
20260503030516 13 0 4.8 14.5 0.00 0.03 0.03 38 1011.0
20260503030038 13 0 6.4 14.5 0.00 0.03 0.03 38 1011.1
20260503025536 13 0 4.8 12.9 0.00 0.03 0.03 38 1011.0
20260503025016 13 338 6.4 17.7 0.00 0.03 0.03 38 1011.0
20260503024516 13 315 4.8 16.1 0.00 0.03 0.03 38 1011.1
20260503024016 13 338 4.8 14.5 0.00 0.03 0.03 38 1011.0
20260503023516 13 338 4.8 14.5 0.00 0.03 0.03 38 1010.9